NOAA 16 DEB, 41261

Orbit data source: Space-Track

NOAA 16 DEB, 41261 is space debris in SSO originally from a launch on Thu, 21 Sep 2000 UTC launched from the Air Force Western Test Range (AFWTR). Debris objects in space refer to the collection of defunct objects orbiting the Earth. Examples of debris include non-operational satellites, rocket bodies, and fragments generated from explosions, collisions, or faulty payload assembly.

Loading next visibility...
Identifier
41261, 2000-055FM
Orbit
SSO
Country
Flag of USUS
Related business
Manufacturer
Unknown
Mission
Spacecraft
Bus & Motor
Unknown
Mass
Unknown
Launch date (UTC)
2000-09-21 (25 years ago)
Launch vehicle
Unknown
Launch site
Air Force Western Test Range (AFWTR)
Object type
Payload
Rocket body
Debris
Shape & HBR
Unknown shape, 0.1 m
Radar Cross Section
Small (<0.1 m²)

Expand to show TLE details & history
Last TLE update: 21 hours ago

TLE from 21 hours ago
0 NOAA 16 DEB
1 41261U 00055FM  26036.96676292  .00004226  00000-0  21316-2 0  9997
2 41261  98.6671  50.4458 0034084 271.2156  88.5114 14.16491564520782
Epoch: 2026-02-05T23:12Z
TLE epoch observation values (Epoch: 2026-02-05T23:12:08.316Z)
Latitude
-0°
Longitude
-73.70025°
Altitude
839.598 km
Speed
7.433 km/s
True Right ascension
03h 21m 46s
True Declination
0° 00' 00"
Sunlit
Object was in daylight at epoch
Visualization orbit readout
Latitude
Unknown
Longitude
Unknown
Altitude
Unknown
Speed
Unknown
Apparent Right ascension
Unknown
Apparent Declination
Unknown
Sunlit
N/A
Visualization observer readout
Local Sidereal Time
22:42:22
Azimuth
Unknown
Elevation
Unknown
Doppler factor
Unknown
Orbital elements
Apogee altitude
858.987 km
Perigee altitude
809.821 km
Semi-major axis
7,212.541 km
Eccentricity
0.00341
Inclination
98.6671°
RAAN
50.4458°
Arg. of periapsis
271.2156°
True anomaly
88.90188°
Mean anomaly
88.5114°
Eccentric anomaly
88.70664°
Mean motion
3.54332 °/min
Orbital period
101.6 mins
BSTAR
0.0021316
Loading maneuver chart data...
Computing Atmospheric mass density...
Loading historical data...
Loading historical data...
Loading historical data...
Loading historical data...
Loading historical data...
Loading historical data...
Loading historical data...

Documentation

Showing up to 5 results
|